Starlink 6328

operational
NORAD ID: 56523 Int'l Des: 2023-065 Owner: SPXS Country: US Constellation: starlink
LEOCIRCULAR

About Starlink 6328

Description loading...

Live Position

Loading 3D Globe...

Upcoming Passes

Altitude History

Altitude vs Time

uPlot chart will show altitude changes over time

Two-Line Element Set

1 56523U 23065W 26037.01007427 .00001122 00000-0 98074-4 0 9994
2 56523 43.0022 22.0996 0001123 266.7938 93.2776 15.02539164151861
Epoch: Feb 6, 2026 • Age: 28 hours

Current Status

Altitude 567.3 km
Velocity 7.58 km/s
Sub-Earth Point -31.94°S, 34.3°E
Launch Date May 14, 2023
Age 2.7 years
Type internet

Technical Details

Classification Payload
Mass 305.00 kg
Dry Mass 290.00 kg
Total Mass 305.00 kg
Length 0.20 m
Diameter 2.80 m
Span 9.00 m
Shape Box + pan
Manufacturer SPXS
Bus Type Starlink
Phase Status In Orbit
Owner/State SPXS/US

Large Constellations

Loading constellations...